Location: Newark
(7.0858°N, 171.3717°E)
Time: 06:18:16
(UTC+00:00)

Courier 1B - Pass Details

Date: 05 December 2020
Orbit: 962 x 1209 km, 28.3° (Epoch: 20 January)

Event Time Altitude Azimuth Distance (km) Brightness Sun altitude
Rises 17:56:20 0° 261° (W) 4,023 - -9.4°
Exits shadow 17:57:28 - 256° (WSW) 3,747 10.1 -9.1°
Reaches altitude 10° 18:00:45 10° 238° (WSW) 3,100 9.8 -8.4°
Maximum altitude 18:04:37 14° 207° (SSW) 2,798 9.9 -7.5°
Drops below altitude 10° 18:08:33 10° 177° (S) 3,138 10.5 -6.6°
Sets 18:13:07 0° 154° (SSE) 4,105 11.6 -5.5°
